Location: Godiavel Galaoual
(15.2485°N, 12.6604°W)
Time: 01:16:08
(UTC+00:00)

Transit 4A - Pass Details

Date: 22 June 2021
Orbit: 872 x 972 km, 66.8° (Epoch: 29 July)

Event Time Altitude Azimuth Distance (km) Brightness Sun altitude
Rises 19:06:32 0° 351° (N) 3,460 11.4 3.0°
Reaches altitude 10° 19:09:10 10° 359° (N) 2,529 10.6 2.4°
Maximum altitude 19:14:37 40° 67° (ENE) 1,288 8.4 1.2°
Drops below altitude 10° 19:20:09 10° 136° (SE) 2,577 9.7 0.0°
Sets 19:22:50 0° 143° (SE) 3,534 10.4 -0.6°
